Location: *
(50.5492°N, 7.7469°E)
Time: 12:21:02
(UTC+00:00)

STARLINK-50 - Pass Details

Date: 21 October 2019
Orbit: 548 x 551 km, 53.0° (Epoch: 16 November)

Event Time Altitude Azimuth Distance (km) Brightness Sun altitude
Rises 18:30:57 0° 283° (WNW) 2,719 8.7 -20.6°
Reaches altitude 10° 18:33:12 10° 286° (WNW) 1,825 7.4 -20.9°
Maximum altitude 18:37:20 66° 10° (N) 603 3.7 -21.6°
Enters shadow 18:37:39 63° 40° (NE) 619 3.6 -21.6°
